This demonstration page uses our WeatherBlox Daily Observations layout. Learn more.

Left ArrowRight Arrow

39.01783, -85.05884

Hourly Observations for April 28, 2019

Temp ( °F °C ) Dew Point ( °F °C ) Humidity (%) Winds ( mph kmh ) Pressure ( in mb ) Visibility ( mi km ) Precip ( " mm )
12:52 am 00:52 Mostly Cloudy 54 12.2 44 6.7 69 69 S 13 20 29.65 1004 10 16 N/A
1:52 am 01:52 Cloudy 54 12.2 47 8.3 77 77 S 8 13 29.65 1004 10 16 0.13 3.30
2:52 am 02:52 Mostly Cloudy 55 12.8 48 8.9 77 77 SW 7 11 29.66 1004 10 16 N/A
3:52 am 03:52 Cloudy 54 12.2 48 8.9 80 80 NW 6 9 29.70 1006 10 16 N/A
4:03 am 04:03 Cloudy 54 12.2 48 8.9 80 80 NW 7 11 29.72 1007 10 16 N/A
4:52 am 04:52 Cloudy 52 11.1 47 8.3 83 83 WSW 6 9 29.75 1007 10 16 N/A
5:52 am 05:52 Cloudy 52 11.1 48 8.9 86 86 WNW 15 24 29.80 1009 10 16 N/A
6:39 am 06:39 Cloudy with Light Rain 51 10.6 47 8.3 86 86 NW 12 19 29.87 1011 10 16 N/A
6:52 am 06:52 Cloudy with Drizzle 51 10.6 47 8.3 86 86 NNW 15 24 29.86 1011 5 8 N/A
7:16 am 07:16 Cloudy with Drizzle 48 8.9 45 7.2 89 89 NNW 17 28 29.92 1013 6 10 N/A
7:41 am 07:41 Cloudy 47 8.3 44 6.7 90 90 NNW 20 31 29.96 1014 8 13 N/A
7:52 am 07:52 Cloudy 47 8.3 43 6.1 86 86 NNW 17 28 29.94 1014 9 14 N/A
8:52 am 08:52 Cloudy 44 6.7 41 5 89 89 NNW 15 24 30.00 1016 9 14 N/A
9:52 am 09:52 Cloudy 45 7.2 40 4.4 83 83 N 15 24 30.06 1018 10 16 N/A
10:27 am 10:27 Cloudy 45 7.2 39 3.9 80 80 N 15 24 30.10 1019 10 16 N/A
10:52 am 10:52 Cloudy 45 7.2 39 3.9 80 80 N 14 22 30.10 1019 10 16 N/A
11:52 am 11:52 Cloudy 47 8.3 40 4.4 77 77 N 12 19 30.12 1020 10 16 N/A
12:27 pm 12:27 Cloudy 48 8.9 40 4.4 74 74 N 10 17 30.15 1021 10 16 N/A
1:52 pm 13:52 Cloudy 50 10 40 4.4 68 68 N 12 19 30.15 1021 10 16 N/A
2:52 pm 14:52 Cloudy 51 10.6 39 3.9 64 64 NNE 6 9 30.16 1022 10 16 N/A
3:52 pm 15:52 Cloudy 53 11.7 40 4.4 61 61 NE 7 11 30.17 1022 10 16 N/A
4:52 pm 16:52 Cloudy 53 11.7 39 3.9 59 59 VRB 3 6 30.17 1022 10 16 N/A
5:52 pm 17:52 Mostly Cloudy 54 12.2 40 4.4 59 59 NE 9 15 30.17 1022 10 16 N/A
6:52 pm 18:52 Mostly Cloudy 53 11.7 39 3.9 59 59 E 12 19 30.17 1022 10 16 N/A
7:52 pm 19:52 Mostly Cloudy 52 11.1 39 3.9 61 61 E 12 19 30.17 1022 10 16 N/A
8:52 pm 20:52 Partly Cloudy 49 9.4 39 3.9 69 69 E 8 13 30.18 1022 10 16 N/A
9:52 pm 21:52 Mostly Clear 48 8.9 39 3.9 71 71 E 6 9 30.21 1023 10 16 N/A
10:52 pm 22:52 Mostly Clear 47 8.3 39 3.9 74 74 E 6 9 30.22 1023 10 16 N/A
11:52 pm 23:52 Partly Cloudy 48 8.9 40 4.4 74 74 ESE 9 15 30.20 1023 10 16 N/A

Powered by AerisWeather